Location: Saratoga Springs
(43.0831°N, 73.7850°W)
Time: 07:29:29
(UTC-04:00)

Vanguard 1 Rocket - Pass Details

Date: 15 April 2024
Orbit: 651 x 4220 km, 34.3° (Epoch: 20 May)

Event Time Altitude Azimuth Distance (km) Brightness Sun altitude
Rises 22:57:36 0° 261° (W) 3,933 11.0 -30.3°
Reaches altitude 10° 22:59:50 10° 256° (WSW) 3,247 10.4 -30.5°
Maximum altitude 23:07:55 53° 181° (S) 2,236 8.9 -31.3°
Enters shadow 23:08:16 53° 176° (S) 2,272 8.9 -31.4°
Drops below altitude 10° 23:23:36 10° 112° (ESE) 6,040 - -32.7°
Sets 23:29:34 0° 109° (ESE) 7,571 - -33.2°
